EST,Max TemperatureF,Mean TemperatureF,Min TemperatureF,Max Dew PointF,MeanDew PointF,Min DewpointF,Max Humidity, Mean Humidity, Min Humidity, Max Sea Level PressureIn, Mean Sea Level PressureIn, Min Sea Level PressureIn, Max VisibilityMiles, Mean VisibilityMiles, Min VisibilityMiles, Max Wind SpeedMPH, Mean Wind SpeedMPH, Max Gust SpeedMPH,PrecipitationIn, CloudCover, Events, WindDirDegrees
2012-12-1,66,57,48,46,43,39,71,58,45,30.27,30.21,30.15,10,10,10,16,7,20,0.00,7,,150
2012-12-2,66,63,59,58,53,46,78,69,60,30.15,30.11,30.07,10,10,4,23,11,30,0.08,8,Rain,206
2012-12-3,75,69,63,59,55,50,78,64,49,30.16,30.11,30.06,10,10,7,20,11,25,0.02,7,Rain,198
2012-12-4,67,58,48,61,54,43,100,78,56,30.24,30.09,30.02,10,8,2,25,11,31,0.38,8,Rain-Thunderstorm,223
2012-12-5,57,48,39,44,38,32,96,72,47,30.36,30.29,30.24,10,10,9,12,5,18,0.00,3,,31
2012-12-6,51,42,33,49,39,29,93,77,61,30.24,30.09,29.99,10,9,2,12,3,15,0.08,7,Rain,98
2012-12-7,58,54,50,57,53,48,100,95,89,29.98,29.92,29.86,10,4,2,12,5,14,1.80,8,Rain,170
2012-12-8,60,55,50,57,53,46,100,90,80,30.00,29.90,29.83,10,6,1,16,6,18,0.76,8,Rain,268
2012-12-9,66,58,50,61,55,48,96,90,84,30.00,29.85,29.72,10,7,2,26,7,39,1.22,8,Rain-Thunderstorm,166
2012-12-10,58,46,33,57,40,27,100,88,75,30.01,29.79,29.71,10,9,4,17,10,21,0.12,8,Rain,303
2012-12-11,39,34,29,27,24,21,85,67,48,30.28,30.15,30.01,10,10,10,12,5,15,0.00,4,,248
2012-12-12,47,36,25,28,24,22,92,67,41,30.41,30.36,30.29,10,10,7,9,3,12,0.00,0,,101
2012-12-13,50,38,26,29,26,24,85,62,39,30.43,30.37,30.30,10,10,7,7,2,9,0.00,1,,139
2012-12-14,57,43,29,30,27,24,85,57,28,30.33,30.26,30.14,10,10,9,12,5,14,0.00,4,,140
2012-12-15,60,52,43,51,41,30,86,70,53,30.15,29.96,29.81,10,9,2,21,9,31,0.20,8,Rain,168
2012-12-16,64,61,57,55,53,49,86,73,60,29.81,29.74,29.67,10,10,3,18,9,25,0.15,8,Rain,205
2012-12-17,62,55,47,55,51,44,100,86,72,29.73,29.65,29.53,10,9,1,21,7,29,0.28,8,Rain-Thunderstorm,203
2012-12-18,50,45,40,45,36,34,93,73,52,29.94,29.82,29.67,10,10,6,22,11,30,T,6,Rain,238
2012-12-19,53,46,38,40,36,33,85,70,54,30.09,29.98,29.86,10,10,7,15,6,22,0.00,6,,62
2012-12-20,57,45,32,50,39,25,96,75,54,29.85,29.56,29.34,10,8,2,41,20,60,0.59,8,Rain-Snow,199
2012-12-21,37,32,27,26,22,18,78,67,56,30.22,29.97,29.73,10,9,6,33,19,43,T,6,Snow,284
2012-12-22,40,31,21,20,18,16,84,64,44,30.33,30.23,30.10,10,10,10,13,6,16,0.00,1,,242
2012-12-23,55,42,29,38,29,19,71,55,38,30.08,29.97,29.91,10,10,10,13,6,16,0.00,5,,183
2012-12-24,52,43,34,48,43,27,100,88,76,30.06,29.85,29.78,10,5,0,17,7,20,0.10,8,Fog-Rain,291
2012-12-25,38,36,34,31,28,26,76,70,64,30.17,30.09,29.94,10,8,5,22,10,29,0.01,8,Rain,38
2012-12-26,35,34,32,34,31,25,100,88,75,30.02,29.65,29.51,10,5,1,24,15,33,0.88,8,Rain-Snow,350
2012-12-27,36,32,28,27,26,24,85,78,70,30.20,30.14,30.03,10,10,10,14,6,16,T,8,,328
2012-12-28,38,35,32,34,29,25,92,81,69,30.15,29.99,29.79,10,8,1,10,5,15,0.14,8,Rain-Snow,100
2012-12-29,34,31,27,34,28,19,100,85,69,30.31,29.94,29.74,10,5,1,23,11,28,0.20,8,Snow,302
2012-12-30,34,27,20,24,20,16,84,73,61,30.52,30.43,30.31,10,10,7,17,6,22,0.00,4,,243
2012-12-31,39,34,28,34,27,23,92,78,64,30.34,30.22,30.09,10,9,4,14,6,16,0.13,8,Rain,189